Location: Enid
(36.3960°N, 97.8780°W)
Time: 14:45:43
(UTC-05:00)

Hubble Space Telescope - Visible Passes

Search period start: 29 April 2016 00:00
Search period end: 09 May 2016 00:00
Orbit: 539 x 543 km, 28.5° (Epoch: 28 April)

Date Brightness Start Highest point End Pass type
(mag) Time Alt. Az. Time Alt. Az. Time Alt. Az.
30 Apr 3.4 04:27:07 10° SE 04:27:07 10° SE 04:27:10 10° SE visible
30 Apr 2.3 06:02:50 10° SW 06:06:11 24° S 06:09:31 10° ESE visible
01 May 3.4 04:17:55 11° SE 04:17:55 11° SE 04:18:06 10° SE visible
01 May 2.2 05:53:18 11° SW 05:56:29 25° S 05:59:56 10° ESE visible
02 May 3.5 04:08:42 10° SE 04:08:42 10° SE 04:08:48 10° ESE visible
02 May 2.0 05:44:05 14° SW 05:46:48 26° S 05:50:18 10° ESE visible
03 May 2.0 05:34:54 17° SW 05:37:07 27° S 05:40:38 10° ESE visible
04 May 1.9 05:25:44 20° SW 05:27:25 27° S 05:30:56 10° SE visible
05 May 2.0 05:16:38 23° SSW 05:17:44 26° S 05:21:12 10° SE visible
06 May 2.0 05:07:38 24° SSW 05:08:03 24° S 05:11:25 10° SE visible
07 May 2.2 04:58:44 22° S 04:58:44 22° S 05:01:36 10° SE visible
08 May 2.6 04:49:58 18° SSE 04:49:58 18° SSE 04:51:43 10° SE visible
